DELTA 1 DEB, 14565

Orbit data source: Space-Track

DELTA 1 DEB, 14565 is space debris in LEO originally from a launch on Thu, 14 Jul 1977 UTC launched from the Air Force Eastern Test Range (AFETR). Debris objects in space refer to the collection of defunct objects orbiting the Earth. Examples of debris include non-operational satellites, rocket bodies, and fragments generated from explosions, collisions, or faulty payload assembly.

Loading next visibility...
Identifier
14565, 1977-065FT
Orbit
LEO
Country
Flag of USUS
Related business
Manufacturer
Unknown
Mission
Spacecraft
Bus & Motor
Unknown
Mass
Unknown
Launch date (UTC)
1977-07-14 (48 years ago)
Launch vehicle
Unknown
Launch site
Air Force Eastern Test Range (AFETR)
Object type
Payload
Rocket body
Debris
Shape & HBR
Unknown shape, 0.1 m
Radar Cross Section
Small (<0.1 m²)

Expand to show TLE details & history
Last TLE update: 1 day ago

TLE from 1 day ago
0 DELTA 1 DEB
1 14565U 77065FT  25348.49895264 -.00000966  00000-0 -18389-2 0  9999
2 14565  29.2058  49.0804 0838609 125.0632 243.1479 12.49272581 18782
Epoch: 2025-12-14T11:58Z
TLE epoch observation values (Epoch: 2025-12-14T11:58:29.508Z)
Latitude
0.00003°
Longitude
146.04651°
Altitude
1,804.586 km
Speed
6.83 km/s
True Right ascension
03h 16m 19s
True Declination
0° 00' 00"
Sunlit
Object was in full shadow at epoch
Visualization orbit readout
Latitude
Unknown
Longitude
Unknown
Altitude
Unknown
Speed
Unknown
Apparent Right ascension
Unknown
Apparent Declination
Unknown
Sunlit
N/A
Visualization observer readout
Local Sidereal Time
12:03:37
Azimuth
Unknown
Elevation
Unknown
Doppler factor
Unknown
Orbital elements
Apogee altitude
2,129.444 km
Perigee altitude
812.94 km
Semi-major axis
7,849.329 km
Eccentricity
0.08386
Inclination
29.2058°
RAAN
49.0804°
Arg. of periapsis
125.0632°
True anomaly
234.99004°
Mean anomaly
243.1479°
Eccentric anomaly
239.0281°
Mean motion
3.121 °/min
Orbital period
115.35 mins
BSTAR
-0.0018389
Loading maneuver chart data...
Computing Atmospheric mass density...
Loading historical data...
Loading historical data...
Loading historical data...
Loading historical data...
Loading historical data...
Loading historical data...
Loading historical data...

Documentation

Showing up to 5 results
|